Fort Stockton Pecos County Airport Fort Stockton US
ICAO: KFST
IATA: FST
Category: Medium
Scheduled Services: No

Elevation: 3011 ft
TransAlt. 18000 ft.

Airport Communications:
ASOS:118.525
ALBUQUERQUE CNTR:135.875
SAN ANGELO RDO:116.9
CTAF/UNICOM:122.8

KFST Zoom In..

Runways:

(A) RW 03 length 4400 ft width 60 ft
---- / hdg 28

(B) RW 07 length 4961 ft width 150 ft
---- / hdg 72

(C) RW 11 length 3348 ft width 100 ft
---- / hdg 118

(D) RW 12 length 7508 ft width 100 ft
---- / hdg 118

(E) RW 16 length 3981 ft width 100 ft
---- / hdg 162

(F) RW 21 length 4400 ft width 60 ft
---- / hdg 208

(G) RW 25 length 4961 ft width 150 ft
---- / hdg 252

(H) RW 29 length 3348 ft width 100 ft
---- / hdg 298

(I) RW 30 length 7508 ft width 100 ft
---- / hdg 298

(J) RW 34 length 3981 ft width 100 ft
---- / hdg 342

Location; KFST
Day. 16 / Time. 17.53 Zulu
* Altimeter: 30.12
* Temperature: 31° c. 87.8°f.
* Wind from: 140° Speed 06 kn.
Dewpoint: 17° c.
Visibility: 10 Statute Miles.
Clouds: Clear (automated report).

KFST 161753Z AUTO 14006KT 10SM CLR 31/17 A3012 RMK AO2 SLP149 T03110167 10311 20217 50000


Wind From 140°
Speed 06 kn.

 
 
jpsmedia.com for Web Design worldairports.se 2018   terms of use